Terminal Aerodrome Forecast
Issued by NWS Wakefield, VA

Home | Current Version | Previous Version | Text Only | Print | Product List | Glossary On
Versions: 1 2 3 4 5 6 7 8 9 10 11 12 13 14 15 16 17 18 19 20 21 22 23 24 25 26 27 28 29 30 31 32 33 34 35 36 37 38 39 40 41 42 43 44
000
FTUS41 KAKQ 241420 AAF
TAFORF
TAF AMD
KORF 241420Z 2414/2512 31013G22KT P6SM OVC015
     FM241700 31014G22KT P6SM OVC025
     FM242100 30012G18KT P6SM SCT050
     FM250300 28008KT P6SM SKC=

USA.gov is the U.S. government's official web portal to all federal, state and local government web resources and services.